Погода в Фенъюане

Тайвань     24°09′49″N   120°38′49″E
темп.,
°C
ветер,
м/с
пор.,
м/с
влажн.,
%
обл.,
%
осадки,
мм/ч
давл.,
гПа
погр.,
м
7 мая, пт
пт723:00+24ююз117562 0.0 1015101
02:00+23ююз01785 0.0 101460
05:00+23ююз12805 0.0 101477
08:00+26юз236714 0.0 1015550
11:00+31зюз34495 0.0 10141270
14:00+31з545096 0.0 10121350
17:00+28з226073 0.0 1012817
20:00+26сз107329 0.3 1013325
8 мая, сб
сб823:00+24с2279100 0.3 1014228
02:00+24ююв018291 0.3 101298
05:00+23ю118395 0.1 101187
08:00+26юз2370100 0.1 1013568
11:00+29зюз335999 0.1 10131271
14:00+31юз3447100 0.1 10091000
17:00+27з226785 0.0 1009537
20:00+25юз11786 0.3 1011294
9 мая, вс
вс923:00+24ссв0184100 1.3 1012161
02:00+24ююв238416 1.7 1009142
05:00+23юв117916 0.0 101032
08:00+27ююз23675 0.0 1011526
11:00+31зюз3449100 0.0 10101591
14:00+31з4449100 0.0 10081345
17:00+30зюз33575 0.0 1008946
20:00+25зсз11787 1.4 1010229
10 мая, пн
пн1023:00+25ю12815 0.4 1010149
02:00+24юв23815 0.4 1008111
05:00+23ююв23786 0.0 1009102
08:00+27ююз35685 0.0 1010669
11:00+32юз454669 0.0 10091556
14:00+32з565181 0.0 10081303
17:00+29юз45605 0.1 1008894
20:00+27ююз36725 0.1 1008526
11 мая, вт
вт1123:00+25ю367780 0.0 1009493
02:00+24ю25775 0.0 1008357
05:00+23ююв257075 0.0 1008287
08:00+27ююз466057 0.0 1009770
11:00+32юз5844100 0.0 10091637
14:00+33зюз674370 0.0 10071637
17:00+30зюз56463 0.0 1006986
20:00+27ююз36594 0.0 1007383